QPF
0.00 0.00 0.00 0.00 0.00 0.01 0.01 0.01 0.01 0.01 0.01 0.00 0.00 0.00 0.00 0.00 0.00 0.00 0.00 0.00 0.00 0.00 0.00 0.00 0.00 0.00 0.00 0.00 0.00 0.00 0.00 0.00 0.00 0.00 0.00 0.00 0.00 0.00 0.00 0.00 0.00 0.00
0.00 0.00 0.00 0.00 0.00 0.00 0.01 0.01 0.01 0.00 0.00 0.00 0.00 0.00 0.00 0.00 0.00 0.00 0.00 0.00 0.00 0.00 0.00 0.00 0.00 0.00 0.00 0.00 0.00 0.00 0.00 0.00 0.00 0.00 0.00 0.00 0.00 0.00 0.00 0.00 0.00 0.00
0.00 0.00 0.00 0.00 0.00 0.00 0.00 0.00 0.00 0.00 0.00 0.00 0.00 0.00 0.00 0.00 0.00 0.00 0.00 0.00 0.00 0.00 0.00 0.00 0.00 0.00 0.00 0.00 0.00 0.00 0.00 0.00 0.00 0.00 0.00 0.00 0.00 0.00 0.00 0.00 0.00 0.00
0.00 0.00 0.00 0.00 0.00 0.00 0.00 0.00 0.00 0.00 0.00 0.00 0.00 0.00 0.00 0.00 0.00 0.00 0.00 0.00 0.00 0.00 0.00 0.00 0.00 0.00 0.00 0.00 0.00 0.00 0.00 0.00 0.00 0.00 0.00 0.00 0.00 0.00 0.00 0.00 0.00 0.00
0.00 0.00 0.00 0.00 0.00 0.00 0.00 0.00 0.00 0.00 0.00 0.00 0.00 0.00 0.00 0.00 0.00 0.00 0.00 0.00 0.00 0.00 0.00 0.00 0.00 0.00 0.00 0.00 0.00 0.00 0.00 0.00 0.00 0.00 0.00 0.00 0.00 0.00 0.00 0.00 0.00 0.00
0.00 0.00 0.00 0.00 0.00 0.00 0.00 0.00 0.00 0.00 0.00 0.00 0.00 0.00 0.00 0.00 0.00 0.00 0.00 0.00 0.00 0.00 0.00 0.00 0.00 0.00 0.00 0.00 0.00 0.00 0.00 0.00 0.00 0.00 0.00 0.00 0.00 0.00 0.00 0.00 0.00 0.00
0.00 0.00 0.00 0.00 0.00 0.00 0.00 0.00 0.00 0.00 0.00 0.00 0.00 0.00 0.00 0.00 0.00 0.00 0.00 0.00 0.00 0.00 0.00 0.00 0.00 0.00 0.00 0.00 0.00 0.00 0.00 0.00 0.00 0.00 0.00 0.00 0.00 0.00 0.00 0.00 0.00 0.00
0.00 0.00 0.00 0.00 0.00 0.00 0.00 0.00 0.00 0.00 0.00 0.00 0.00 0.00 0.00 0.00 0.00 0.00 0.00 0.00 0.00 0.00 0.00 0.00 0.00 0.00 0.00 0.00 0.00 0.00 0.00 0.00 0.00 0.00 0.00 0.00 0.00 0.00 0.00 0.00 0.00 0.00
0.00 0.00 0.00 0.00 0.00 0.00 0.00 0.00 0.00 0.00 0.00 0.00 0.00 0.00 0.00 0.00 0.00 0.00 0.00 0.00 0.00 0.00 0.00 0.00 0.00 0.00 0.00 0.00 0.00 0.00 0.00 0.00 0.00 0.00 0.00 0.00 0.00 0.00 0.00 0.00 0.00 0.00
0.00 0.00 0.00 0.00 0.00 0.00 0.00 0.00 0.00 0.00 0.00 0.00 0.00 0.00 0.00 0.00 0.00 0.00 0.00 0.00 0.00 0.00 0.00 0.00 0.00 0.00 0.00 0.00 0.00 0.00 0.00 0.00 0.00 0.00 0.00 0.00 0.00 0.00 0.00 0.00 0.00 0.00
0.00 0.00 0.00 0.00 0.00 0.00 0.00 0.00 0.00 0.00 0.00 0.00 0.00 0.00 0.00 0.00 0.00 0.00 0.00 0.00 0.00 0.00 0.00 0.00 0.00 0.00 0.00 0.00 0.00 0.00 0.00 0.00 0.00 0.00 0.00 0.00 0.00 0.00 0.00 0.00 0.00 0.00
0.00 0.00 0.00 0.00 0.00 0.00 0.00 0.00 0.00 0.00 0.00 0.00 0.00 0.00 0.00 0.00 0.00 0.00 0.00 0.00 0.00 0.00 0.00 0.00 0.00 0.00 0.00 0.00 0.00 0.00 0.00 0.00 0.00 0.00 0.00 0.00 0.00 0.00 0.00 0.00 0.00 0.00
0.00 0.00 0.00 0.00 0.00 0.00 0.00 0.00 0.00 0.00 0.00 0.00 0.00 0.00 0.00 0.00 0.00 0.00 0.00 0.00 0.00 0.00 0.00 0.00 0.00 0.00 0.00 0.00 0.00 0.00 0.00 0.00 0.00 0.00 0.00 0.00 0.00 0.00 0.00 0.00 0.00 0.00
0.00 0.00 0.00 0.00 0.00 0.00 0.00 0.00 0.00 0.00 0.00 0.00 0.00 0.00 0.00 0.00 0.00 0.00 0.00 0.00 0.00 0.00 0.00 0.00 0.00 0.00 0.00 0.00 0.00 0.00 0.00 0.00 0.00 0.00 0.00 0.00 0.00 0.00 0.00 0.00 0.00 0.00
0.00 0.00 0.00 0.00 0.00 0.00 0.00 0.00 0.00 0.00 0.00 0.00 0.00 0.00 0.00 0.00 0.00 0.00 0.00 0.00 0.00 0.00 0.00 0.00 0.00 0.00 0.00 0.00 0.00 0.00 0.00 0.00 0.00 0.00 0.00 0.00 0.00 0.00 0.00 0.00 0.00 0.00
0.00 0.00 0.00 0.00 0.00 0.00 0.00 0.00 0.00 0.00 0.00 0.00 0.00 0.00 0.00 0.00 0.00 0.00 0.00 0.00 0.00 0.00 0.00 0.00 0.00 0.00 0.00 0.00 0.00 0.00 0.00 0.00 0.00 0.00 0.00 0.00 0.00 0.00 0.00 0.00 0.00 0.00
0.00 0.00 0.00 0.00 0.00 0.00 0.00 0.00 0.00 0.00 0.00 0.00 0.00 0.00 0.00 0.00 0.00 0.00 0.00 0.00 0.00 0.00 0.00 0.00 0.00 0.00 0.00 0.00 0.00 0.00 0.00 0.00 0.00 0.00 0.00 0.00 0.00 0.00 0.00 0.00 0.00 0.00
0.00 0.00 0.00 0.00 0.00 0.00 0.00 0.00 0.00 0.00 0.00 0.00 0.00 0.00 0.00 0.00 0.00 0.00 0.00 0.00 0.00 0.00 0.00 0.00 0.00 0.00 0.00 0.00 0.00 0.00 0.00 0.00 0.00 0.00 0.00 0.00 0.00 0.00 0.00 0.00 0.00 0.00
0.00 0.00 0.00 0.00 0.00 0.00 0.00 0.00 0.00 0.00 0.00 0.00 0.00 0.00 0.00 0.00 0.00 0.00 0.00 0.00 0.00 0.00 0.00 0.00 0.00 0.00 0.00 0.00 0.00 0.00 0.00 0.00 0.00 0.00 0.00 0.00 0.00 0.00 0.00 0.00 0.00 0.00
0.00 0.00 0.00 0.00 0.00 0.00 0.00 0.00 0.00 0.00 0.00 0.00 0.00 0.00 0.00 0.00 0.00 0.00 0.00 0.00 0.00 0.00 0.00 0.00 0.00 0.00 0.00 0.00 0.00 0.00 0.00 0.00 0.00 0.00 0.00 0.00 0.00 0.00 0.00 0.00 0.00 0.00
0.00 0.00 0.00 0.00 0.00 0.00 0.00 0.00 0.00 0.00 0.00 0.00 0.00 0.00 0.00 0.00 0.00 0.00 0.00 0.00 0.00 0.00 0.00 0.00 0.00 0.00 0.00 0.00 0.00 0.00 0.00 0.00 0.00 0.00 0.00 0.00 0.00 0.00 0.00 0.00 0.00 0.00
0.00 0.00 0.00 0.00 0.00 0.00 0.00 0.00 0.00 0.00 0.00 0.00 0.00 0.00 0.00 0.00 0.00 0.00 0.00 0.00 0.00 0.00 0.00 0.00 0.00 0.00 0.00 0.00 0.00 0.00 0.00 0.00 0.00 0.00 0.00 0.00 0.00 0.00 0.00 0.00 0.00 0.00
0.00 0.00 0.00 0.00 0.00 0.00 0.00 0.00 0.00 0.00 0.00 0.00 0.00 0.00 0.00 0.00 0.00 0.00 0.00 0.00 0.00 0.00 0.00 0.00 0.00 0.00 0.00 0.00 0.00 0.00 0.00 0.00 0.00 0.00 0.00 0.00 0.00 0.00 0.00 0.00 0.00 0.00
0.00 0.00 0.00 0.00 0.00 0.00 0.00 0.00 0.00 0.00 0.00 0.00 0.00 0.00 0.00 0.00 0.00 0.00 0.00 0.00 0.00 0.00 0.00 0.00 0.00 0.00 0.00 0.00 0.00 0.00 0.00 0.00 0.00 0.00 0.00 0.00 0.00 0.00 0.00 0.00 0.00 0.00
0.00 0.00 0.00 0.00 0.00 0.00 0.00 0.00 0.00 0.00 0.00 0.00 0.00 0.00 0.00 0.00 0.00 0.00 0.00 0.00 0.00 0.00 0.00 0.00 0.00 0.00 0.00 0.00 0.00 0.00 0.00 0.00 0.00 0.00 0.00 0.00 0.00 0.00 0.00 0.00 0.00 0.00
0.00 0.00 0.00 0.00 0.00 0.00 0.00 0.00 0.00 0.00 0.00 0.00 0.00 0.00 0.00 0.00 0.00 0.00 0.00 0.00 0.00 0.00 0.00 0.00 0.00 0.00 0.00 0.00 0.00 0.00 0.00 0.00 0.00 0.00 0.00 0.00 0.00 0.00 0.00 0.00 0.00 0.00
MSLP
1021.52 1021.76 1022.04 1022.16 1022.24 1022.28 1022.36 1022.48 1022.64 1022.84 1022.96 1022.92 1022.88 1022.92 1023.12 1023.24 1023.16 1023.12 1023.04 1023.04 1023.04 1022.96 1022.92 1022.80 1022.68 1022.56 1022.36 1022.20 1022.08 1021.88 1021.84 1021.88 1021.72 1021.64 1021.52 1021.48 1021.44 1021.36 1021.24 1021.16 1020.96 1020.80
1022.04 1022.12 1022.20 1022.36 1022.56 1022.68 1022.76 1022.80 1022.92 1023.04 1023.16 1023.00 1022.96 1023.24 1023.40 1023.40 1023.48 1023.40 1023.36 1023.28 1023.24 1023.24 1023.16 1023.04 1022.88 1022.72 1022.56 1022.40 1022.28 1022.16 1022.04 1022.04 1021.92 1021.72 1021.60 1021.60 1021.48 1021.28 1021.20 1021.12 1020.92 1020.80
1022.28 1022.48 1022.60 1022.76 1022.92 1023.00 1023.08 1023.12 1023.16 1023.20 1023.20 1023.20 1023.36 1023.48 1023.60 1023.68 1023.68 1023.72 1023.68 1023.60 1023.52 1023.44 1023.36 1023.24 1023.12 1022.92 1022.76 1022.60 1022.44 1022.36 1022.20 1022.20 1022.12 1021.88 1021.72 1021.64 1021.56 1021.48 1021.36 1021.16 1021.08 1020.92
1022.52 1022.64 1022.80 1022.88 1022.92 1023.00 1023.12 1023.12 1023.08 1023.16 1023.32 1023.52 1023.68 1023.72 1023.80 1023.84 1023.88 1023.88 1023.88 1023.76 1023.68 1023.60 1023.52 1023.44 1023.32 1023.16 1023.00 1022.84 1022.68 1022.56 1022.44 1022.32 1022.28 1022.04 1021.84 1021.72 1021.68 1021.60 1021.52 1021.36 1021.24 1021.00
1022.76 1022.88 1022.96 1022.88 1022.80 1022.88 1022.96 1023.16 1023.36 1023.56 1023.72 1023.80 1023.84 1023.88 1023.92 1024.00 1023.92 1023.96 1023.92 1023.92 1023.80 1023.72 1023.64 1023.56 1023.48 1023.40 1023.20 1023.04 1022.88 1022.80 1022.64 1022.52 1022.44 1022.24 1022.08 1022.00 1021.84 1021.76 1021.68 1021.60 1021.52 1021.32
1022.56 1022.60 1022.80 1022.84 1022.96 1023.12 1023.36 1023.48 1023.60 1023.76 1023.96 1024.04 1024.08 1024.08 1024.20 1024.16 1024.12 1024.08 1024.08 1024.04 1023.92 1023.80 1023.76 1023.72 1023.68 1023.56 1023.40 1023.24 1023.08 1023.00 1022.92 1022.80 1022.64 1022.44 1022.28 1022.16 1022.00 1021.88 1021.88 1021.84 1021.76 1021.56
1022.92 1023.12 1023.28 1023.36 1023.48 1023.60 1023.64 1023.80 1023.88 1023.92 1024.08 1024.16 1024.20 1024.32 1024.32 1024.40 1024.36 1024.32 1024.24 1024.12 1024.04 1024.04 1023.96 1023.88 1023.84 1023.76 1023.64 1023.48 1023.36 1023.24 1023.20 1023.12 1022.92 1022.68 1022.52 1022.36 1022.24 1022.12 1022.04 1022.04 1022.00 1021.80
1023.20 1023.28 1023.44 1023.56 1023.64 1023.72 1023.80 1023.92 1024.08 1024.24 1024.32 1024.40 1024.52 1024.48 1024.44 1024.52 1024.52 1024.48 1024.36 1024.32 1024.32 1024.28 1024.28 1024.20 1024.04 1024.04 1023.88 1023.72 1023.64 1023.48 1023.32 1023.28 1023.12 1022.96 1022.84 1022.64 1022.56 1022.40 1022.28 1022.24 1022.20 1022.00
1023.48 1023.60 1023.68 1023.80 1023.84 1023.92 1024.08 1024.16 1024.32 1024.40 1024.40 1024.52 1024.60 1024.72 1024.68 1024.64 1024.64 1024.60 1024.56 1024.44 1024.48 1024.52 1024.52 1024.48 1024.44 1024.28 1024.20 1024.00 1023.92 1023.76 1023.52 1023.36 1023.20 1023.12 1023.00 1022.88 1022.76 1022.60 1022.56 1022.48 1022.36 1022.28
1023.64 1023.72 1023.88 1023.96 1024.08 1024.24 1024.36 1024.40 1024.48 1024.56 1024.64 1024.72 1024.72 1024.76 1024.84 1024.88 1024.76 1024.72 1024.72 1024.64 1024.60 1024.72 1024.76 1024.84 1024.80 1024.72 1024.52 1024.36 1024.16 1023.96 1023.68 1023.44 1023.32 1023.20 1023.08 1023.00 1022.92 1022.84 1022.80 1022.64 1022.48 1022.44
1023.84 1023.96 1024.12 1024.24 1024.36 1024.48 1024.60 1024.64 1024.72 1024.76 1024.80 1024.80 1024.92 1024.88 1024.88 1024.92 1024.92 1024.80 1024.80 1024.84 1024.96 1025.04 1025.12 1025.20 1025.20 1025.12 1025.00 1024.80 1024.52 1024.28 1023.92 1023.60 1023.48 1023.36 1023.16 1023.08 1023.04 1022.88 1022.80 1022.72 1022.68 1022.60
1023.96 1024.12 1024.28 1024.44 1024.56 1024.72 1024.80 1024.80 1024.84 1024.92 1024.96 1024.96 1024.92 1025.00 1025.04 1025.04 1025.08 1025.08 1025.00 1025.04 1025.20 1025.32 1025.40 1025.52 1025.52 1025.52 1025.44 1025.28 1024.92 1024.56 1024.16 1023.76 1023.60 1023.52 1023.32 1023.28 1023.20 1022.96 1022.92 1022.92 1022.88 1022.84
1024.00 1024.20 1024.40 1024.52 1024.64 1024.76 1024.84 1024.96 1025.04 1025.08 1025.04 1025.12 1025.16 1025.12 1025.12 1025.16 1025.24 1025.28 1025.28 1025.36 1025.48 1025.60 1025.72 1025.84 1025.84 1025.88 1025.84 1025.68 1025.32 1024.96 1024.48 1023.92 1023.68 1023.56 1023.40 1023.44 1023.36 1023.16 1023.12 1023.08 1023.08 1023.04
1024.16 1024.28 1024.44 1024.56 1024.68 1024.80 1024.92 1025.04 1025.16 1025.28 1025.36 1025.40 1025.40 1025.36 1025.32 1025.28 1025.32 1025.36 1025.44 1025.56 1025.72 1025.80 1025.96 1026.08 1026.20 1026.20 1026.24 1026.16 1025.84 1025.40 1024.92 1024.08 1023.76 1023.76 1023.64 1023.44 1023.40 1023.28 1023.28 1023.32 1023.32 1023.32
1024.20 1024.36 1024.48 1024.60 1024.72 1024.88 1025.08 1025.24 1025.32 1025.36 1025.40 1025.48 1025.56 1025.56 1025.52 1025.44 1025.40 1025.40 1025.48 1025.64 1025.76 1025.92 1026.08 1026.40 1026.52 1026.60 1026.72 1026.88 1026.56 1025.96 1025.44 1024.32 1023.96 1023.88 1023.72 1023.52 1023.56 1023.48 1023.36 1023.36 1023.44 1023.56
1024.24 1024.36 1024.48 1024.64 1024.80 1024.96 1025.12 1025.28 1025.40 1025.52 1025.60 1025.60 1025.64 1025.64 1025.68 1025.72 1025.68 1025.64 1025.64 1025.76 1025.84 1026.04 1026.32 1026.60 1026.88 1027.04 1027.36 1027.20 1027.00 1026.84 1026.04 1025.00 1024.08 1023.96 1023.80 1023.76 1023.76 1023.60 1023.48 1023.44 1023.52 1023.56
1024.16 1024.36 1024.52 1024.68 1024.84 1025.04 1025.16 1025.28 1025.52 1025.64 1025.76 1025.84 1025.88 1025.92 1025.92 1025.92 1025.92 1025.88 1025.92 1025.92 1026.08 1026.36 1026.60 1026.84 1027.20 1027.64 1027.68 1027.40 1027.04 1026.72 1026.44 1025.56 1024.48 1024.12 1023.88 1023.92 1023.76 1023.64 1023.52 1023.44 1023.64 1023.72
1024.16 1024.32 1024.52 1024.72 1024.84 1025.04 1025.20 1025.40 1025.56 1025.68 1025.84 1025.96 1026.00 1026.08 1026.08 1026.08 1026.12 1026.08 1026.04 1026.12 1026.24 1026.52 1026.88 1027.12 1027.48 1028.08 1027.80 1027.56 1027.20 1026.72 1026.40 1026.00 1024.60 1024.20 1024.00 1023.92 1023.80 1023.56 1023.40 1023.56 1023.80 1023.76
1024.16 1024.40 1024.60 1024.80 1024.96 1025.12 1025.32 1025.48 1025.64 1025.80 1025.96 1026.08 1026.20 1026.20 1026.24 1026.28 1026.32 1026.32 1026.28 1026.20 1026.32 1026.72 1027.12 1027.44 1027.64 1028.24 1027.96 1027.60 1027.24 1026.96 1026.36 1025.92 1024.56 1024.40 1024.12 1023.96 1023.76 1023.60 1023.44 1023.64 1023.76 1023.76
1024.20 1024.48 1024.72 1024.92 1025.08 1025.24 1025.40 1025.56 1025.76 1026.00 1026.08 1026.12 1026.16 1026.28 1026.36 1026.48 1026.52 1026.52 1026.48 1026.44 1026.48 1026.72 1027.20 1027.64 1027.96 1028.24 1028.08 1027.64 1027.36 1026.96 1026.32 1025.80 1024.56 1024.40 1024.16 1023.84 1023.88 1023.68 1023.48 1023.52 1023.72 1023.80
1024.32 1024.56 1024.80 1025.00 1025.16 1025.36 1025.52 1025.72 1025.92 1026.00 1026.04 1026.04 1026.12 1026.24 1026.36 1026.40 1026.56 1026.68 1026.76 1026.68 1026.60 1026.72 1027.08 1027.64 1028.24 1028.40 1028.08 1027.80 1027.44 1027.08 1026.36 1025.52 1024.52 1024.36 1024.12 1023.88 1023.84 1023.68 1023.28 1023.44 1023.44 1023.72
1024.40 1024.72 1024.96 1025.12 1025.32 1025.48 1025.68 1025.88 1026.04 1026.12 1026.16 1026.16 1026.20 1026.32 1026.40 1026.44 1026.60 1026.68 1026.80 1026.88 1026.84 1026.80 1026.96 1027.44 1028.16 1028.40 1028.16 1027.92 1027.56 1027.16 1026.48 1025.08 1024.60 1024.44 1024.24 1023.92 1023.84 1023.68 1023.44 1023.24 1023.36 1023.68
1024.48 1024.76 1025.00 1025.16 1025.36 1025.52 1025.80 1026.00 1026.08 1026.08 1026.12 1026.12 1026.24 1026.32 1026.40 1026.52 1026.68 1026.76 1026.88 1027.08 1027.12 1027.04 1026.96 1027.24 1027.84 1028.28 1028.20 1028.04 1027.68 1027.36 1026.64 1025.32 1024.80 1024.64 1024.36 1023.96 1023.76 1023.64 1023.20 1023.00 1023.56 1023.68
1024.56 1024.80 1025.08 1025.24 1025.44 1025.68 1025.92 1026.08 1026.12 1026.12 1026.20 1026.16 1026.20 1026.28 1026.36 1026.40 1026.48 1026.68 1026.84 1027.08 1027.32 1027.40 1027.32 1027.12 1027.64 1028.20 1028.20 1028.08 1027.84 1027.56 1027.04 1025.92 1025.04 1025.00 1024.80 1024.36 1023.68 1023.56 1023.20 1023.00 1023.64 1024.04
1024.60 1024.84 1025.08 1025.32 1025.56 1025.88 1025.96 1026.08 1026.12 1026.20 1026.20 1026.16 1026.16 1026.20 1026.24 1026.24 1026.32 1026.48 1026.68 1026.88 1027.16 1027.40 1027.60 1027.24 1027.28 1027.80 1028.08 1028.08 1027.96 1027.72 1027.32 1026.40 1025.52 1025.36 1025.24 1025.04 1023.96 1023.44 1023.32 1023.04 1023.08 1023.36
1024.76 1025.04 1025.28 1025.48 1025.72 1025.88 1025.96 1026.04 1026.12 1026.16 1026.16 1026.00 1025.92 1025.84 1026.04 1026.16 1026.32 1026.56 1026.72 1026.80 1026.84 1026.96 1027.24 1027.28 1027.28 1027.44 1027.96 1027.96 1027.88 1027.68 1027.56 1027.04 1026.00 1025.88 1025.76 1025.32 1024.76 1023.56 1023.44 1023.16 1022.96 1022.88
Thickness
5629 5627 5625 5623 5622 5621 5620 5619 5617 5615 5613 5613 5612 5610 5608 5605 5603 5603 5602 5601 5600 5599 5598 5597 5596 5596 5596 5595 5595 5594 5593 5591 5590 5589 5588 5586 5584 5583 5582 5581 5581 5580
5623 5622 5620 5619 5617 5616 5614 5613 5612 5610 5609 5608 5607 5604 5602 5600 5598 5597 5596 5595 5594 5593 5592 5591 5591 5591 5590 5590 5589 5588 5587 5585 5584 5583 5582 5581 5579 5579 5577 5576 5576 5575
5618 5617 5615 5614 5612 5611 5610 5608 5608 5606 5604 5603 5601 5598 5596 5594 5593 5591 5590 5589 5588 5587 5586 5585 5585 5584 5584 5583 5583 5582 5581 5579 5578 5577 5576 5575 5574 5572 5571 5571 5570 5569
5613 5612 5611 5610 5609 5607 5606 5605 5603 5602 5599 5597 5595 5593 5591 5589 5587 5585 5584 5584 5582 5582 5581 5580 5579 5578 5577 5577 5576 5575 5575 5573 5571 5571 5571 5569 5568 5566 5565 5564 5563 5562
5610 5609 5608 5607 5607 5605 5603 5601 5598 5596 5593 5591 5589 5587 5585 5583 5582 5581 5579 5578 5578 5577 5575 5574 5573 5572 5571 5571 5570 5569 5568 5567 5565 5564 5564 5563 5561 5560 5558 5556 5555 5554
5608 5606 5604 5603 5602 5599 5597 5595 5593 5590 5587 5585 5583 5581 5579 5578 5577 5576 5574 5573 5573 5571 5570 5569 5567 5566 5565 5565 5564 5562 5561 5560 5559 5558 5557 5556 5555 5553 5551 5548 5547 5546
5603 5601 5599 5597 5595 5593 5591 5589 5586 5584 5581 5579 5577 5575 5574 5572 5571 5570 5569 5568 5567 5566 5565 5563 5562 5560 5559 5559 5557 5556 5554 5553 5552 5551 5550 5548 5547 5546 5544 5542 5540 5539
5597 5595 5593 5591 5589 5588 5586 5583 5580 5578 5576 5574 5572 5570 5569 5567 5566 5565 5564 5563 5561 5560 5558 5557 5556 5555 5553 5552 5551 5550 5549 5547 5546 5544 5542 5541 5540 5538 5536 5534 5532 5531
5592 5590 5588 5586 5584 5582 5580 5577 5575 5572 5571 5569 5567 5565 5563 5562 5561 5560 5558 5557 5555 5554 5552 5550 5549 5548 5547 5546 5544 5544 5543 5541 5540 5538 5536 5534 5532 5531 5528 5526 5525 5524
5587 5585 5583 5581 5579 5576 5574 5572 5569 5568 5565 5563 5562 5560 5558 5557 5555 5555 5553 5552 5550 5548 5546 5544 5542 5541 5539 5539 5538 5537 5536 5535 5533 5532 5530 5528 5525 5524 5521 5519 5518 5516
5582 5580 5578 5576 5573 5570 5568 5566 5564 5562 5560 5559 5557 5555 5554 5552 5551 5549 5548 5546 5544 5542 5539 5537 5535 5533 5532 5531 5531 5529 5530 5529 5527 5525 5524 5521 5519 5517 5515 5512 5510 5508
5578 5576 5573 5570 5568 5565 5563 5561 5559 5557 5555 5554 5552 5550 5549 5547 5546 5544 5543 5540 5538 5535 5533 5530 5528 5526 5525 5523 5523 5522 5522 5522 5520 5519 5517 5515 5512 5510 5508 5505 5502 5499
5573 5571 5568 5566 5563 5561 5559 5557 5555 5553 5550 5549 5547 5545 5544 5542 5541 5538 5537 5534 5532 5529 5526 5523 5521 5519 5517 5516 5516 5515 5515 5516 5515 5513 5511 5508 5505 5503 5500 5497 5494 5491
5568 5566 5563 5561 5559 5557 5554 5552 5550 5547 5545 5543 5542 5540 5539 5538 5536 5534 5532 5529 5527 5524 5520 5517 5514 5512 5510 5508 5508 5507 5508 5510 5509 5506 5505 5502 5499 5496 5493 5489 5486 5483
5564 5561 5559 5557 5554 5552 5549 5547 5545 5542 5540 5538 5537 5535 5534 5533 5531 5529 5528 5524 5521 5519 5515 5511 5508 5505 5502 5499 5499 5499 5500 5503 5503 5500 5498 5496 5492 5489 5486 5482 5479 5475
5559 5557 5555 5552 5550 5547 5544 5542 5540 5537 5536 5534 5532 5531 5529 5527 5526 5524 5522 5519 5517 5513 5509 5505 5501 5497 5494 5493 5492 5491 5491 5494 5496 5494 5491 5489 5485 5482 5480 5476 5472 5468
5556 5553 5550 5548 5545 5543 5540 5538 5535 5533 5531 5529 5527 5526 5524 5523 5520 5519 5517 5514 5511 5507 5502 5498 5493 5489 5488 5487 5487 5486 5484 5485 5488 5488 5485 5481 5478 5476 5474 5469 5465 5461
5552 5549 5546 5543 5541 5539 5536 5534 5531 5529 5526 5524 5523 5521 5518 5517 5515 5513 5511 5508 5505 5501 5496 5492 5487 5482 5481 5481 5481 5480 5478 5478 5481 5480 5478 5475 5473 5471 5468 5464 5458 5455
5547 5545 5542 5539 5537 5534 5531 5530 5527 5524 5522 5520 5518 5516 5514 5512 5509 5508 5506 5503 5500 5495 5489 5485 5480 5476 5476 5475 5474 5474 5473 5473 5475 5474 5471 5470 5467 5465 5463 5458 5453 5450
5544 5540 5537 5535 5533 5529 5527 5525 5522 5520 5518 5516 5514 5512 5510 5507 5505 5502 5500 5497 5495 5490 5484 5479 5474 5470 5470 5469 5469 5469 5468 5469 5471 5469 5467 5465 5462 5459 5457 5453 5448 5444
5539 5536 5533 5530 5527 5525 5523 5520 5518 5517 5514 5512 5511 5508 5505 5503 5500 5497 5494 5492 5489 5486 5481 5475 5469 5465 5465 5464 5464 5463 5464 5466 5467 5465 5463 5460 5457 5454 5453 5450 5444 5439
5535 5531 5528 5526 5523 5521 5519 5516 5514 5512 5510 5508 5506 5504 5501 5499 5495 5492 5489 5486 5484 5481 5478 5472 5465 5462 5460 5459 5459 5458 5460 5463 5463 5460 5458 5456 5453 5450 5449 5446 5440 5434
5530 5527 5524 5521 5519 5517 5514 5512 5510 5508 5506 5505 5502 5500 5497 5494 5491 5488 5484 5481 5478 5476 5474 5469 5462 5458 5456 5455 5454 5453 5455 5458 5458 5455 5452 5452 5450 5447 5446 5443 5436 5428
5525 5522 5520 5517 5515 5512 5510 5508 5506 5503 5502 5500 5498 5496 5493 5490 5488 5484 5481 5477 5473 5470 5469 5466 5461 5455 5452 5451 5449 5448 5449 5451 5452 5450 5447 5447 5446 5444 5442 5438 5432 5425
5521 5518 5516 5513 5510 5507 5505 5503 5502 5500 5498 5497 5495 5492 5490 5488 5484 5481 5478 5475 5471 5467 5464 5462 5459 5454 5450 5447 5446 5443 5443 5445 5446 5444 5440 5439 5441 5441 5437 5434 5429 5423
5517 5513 5510 5508 5505 5503 5501 5499 5497 5496 5494 5493 5492 5490 5487 5484 5481 5478 5475 5472 5469 5466 5462 5459 5457 5453 5448 5444 5442 5440 5438 5438 5439 5438 5434 5432 5434 5436 5433 5430 5426 5421